DELTA 1 DEB, 42648

Orbit data source: Space-Track

DELTA 1 DEB, 42648 is space debris in SSO originally from a launch on Thu, 12 Jun 1975 UTC launched from the Air Force Western Test Range (AFWTR). Debris objects in space refer to the collection of defunct objects orbiting the Earth. Examples of debris include non-operational satellites, rocket bodies, and fragments generated from explosions, collisions, or faulty payload assembly.

Loading next visibility...
Identifier
42648, 1975-052MH
Orbit
SSO
Country
Flag of USUS
Related business
Manufacturer
Unknown
Mission
Spacecraft
Bus & Motor
Unknown
Mass
Unknown
Launch date (UTC)
1975-06-12 (50 years ago)
Launch vehicle
Unknown
Launch site
Air Force Western Test Range (AFWTR)
Object type
Payload
Rocket body
Debris
Shape & HBR
Unknown shape, 0.1 m
Radar Cross Section
Small (<0.1 m²)

Expand to show TLE details & history
Last TLE update: 22 hours ago

TLE from 22 hours ago
0 DELTA 1 DEB
1 42648U 75052MH  25287.51324339  .00006260  00000-0  84909-2 0  9993
2 42648 100.3649  19.5697 0191686 354.4938   5.4088 13.52458529579160
Epoch: 2025-10-14T12:19Z
TLE epoch observation values (Epoch: 2025-10-14T12:19:04.228Z)
Latitude
-0.00004°
Longitude
171.5015°
Altitude
923.987 km
Speed
7.46 km/s
True Right ascension
01h 18m 16s
True Declination
0° 00' 00"
Sunlit
Object was in full shadow at epoch
Visualization orbit readout
Latitude
Unknown
Longitude
Unknown
Altitude
Unknown
Speed
Unknown
Apparent Right ascension
Unknown
Apparent Declination
Unknown
Sunlit
N/A
Visualization observer readout
Local Sidereal Time
04:37:54
Azimuth
Unknown
Elevation
Unknown
Doppler factor
Unknown
Orbital elements
Apogee altitude
1,203.148 km
Perigee altitude
917.969 km
Semi-major axis
7,438.696 km
Eccentricity
0.01917
Inclination
100.3649°
RAAN
19.5697°
Arg. of periapsis
354.4938°
True anomaly
5.6209°
Mean anomaly
5.4088°
Eccentric anomaly
5.51434°
Mean motion
3.38297 °/min
Orbital period
106.42 mins
BSTAR
0.0084909
Loading maneuver chart data...
Computing Atmospheric mass density...
Loading historical data...
Loading historical data...
Loading historical data...
Loading historical data...
Loading historical data...
Loading historical data...
Loading historical data...

Documentation

Showing up to 5 results
|